TGW450 WSSS-WMKK

Flight info

Callsign TGW450
Flight time 0h 37m
Altitude 22000
Route MASBO5B MASBO A457 GUPTA GUPTA1H
Aircraft A20N/M-SDE2E3FGHIRWXY/LB1

Departure

Time 2026-05-06 14:16
Airport Singapore Changi Airport (WSSS)

Arrival

Time 2026-05-06 14:53
Airport Kuala Lumpur International Airport (WMKK)
Time Latitude Longitude Altitude Speed Heading
2026-05-06 14:01 1.36369 103.99219 28 ft 0 kts 112°
2026-05-06 14:06 1.36371 103.99215 28 ft 2 kts 112°
2026-05-06 14:07 1.36376 103.99200 28 ft 2 kts 112°
2026-05-06 14:07 1.36381 103.99187 28 ft 2 kts 112°
2026-05-06 14:07 1.36387 103.99174 28 ft 2 kts 112°
2026-05-06 14:07 1.36393 103.99160 28 ft 0 kts 112°
2026-05-06 14:08 1.36396 103.99150 28 ft 2 kts 89°
2026-05-06 14:08 1.36392 103.99136 28 ft 2 kts 52°
2026-05-06 14:08 1.36384 103.99129 28 ft 0 kts 26°
2026-05-06 14:08 1.36377 103.99126 28 ft 1 kts 22°
2026-05-06 14:09 1.36376 103.99126 28 ft 0 kts 22°
2026-05-06 14:12 1.36389 103.99136 28 ft 4 kts 47°
2026-05-06 14:12 1.36418 103.99169 28 ft 8 kts 50°
2026-05-06 14:12 1.36468 103.99229 28 ft 13 kts 47°
2026-05-06 14:13 1.36537 103.99294 28 ft 14 kts 43°
2026-05-06 14:13 1.36589 103.99362 28 ft 9 kts 77°
2026-05-06 14:13 1.36573 103.99428 28 ft 10 kts 113°
2026-05-06 14:13 1.36543 103.99498 28 ft 11 kts 112°
2026-05-06 14:14 1.36511 103.99573 28 ft 12 kts 113°
2026-05-06 14:14 1.36476 103.99654 28 ft 12 kts 112°
2026-05-06 14:14 1.36441 103.99738 28 ft 13 kts 113°
2026-05-06 14:14 1.36399 103.99836 28 ft 16 kts 117°
2026-05-06 14:15 1.36320 103.99883 28 ft 13 kts 173°
2026-05-06 14:15 1.36224 103.99894 28 ft 13 kts 173°
2026-05-06 14:15 1.36167 103.99888 28 ft 0 kts 204°
2026-05-06 14:15 1.36113 103.99865 28 ft 35 kts 203°
2026-05-06 14:16 1.35646 103.99667 28 ft 107 kts 203°
2026-05-06 14:16 1.34766 103.99297 30 ft 164 kts 202°
2026-05-06 14:16 1.33670 103.98829 501 ft 172 kts 204°
2026-05-06 14:16 1.32567 103.98356 1115 ft 175 kts 203°
2026-05-06 14:17 1.31416 103.97971 1740 ft 177 kts 183°
2026-05-06 14:17 1.30213 103.98288 2172 ft 190 kts 144°
2026-05-06 14:17 1.29378 103.99353 2562 ft 206 kts 115°
2026-05-06 14:17 1.28903 104.00765 2944 ft 223 kts 93°
2026-05-06 14:18 1.29301 104.02305 3220 ft 246 kts 53°
2026-05-06 14:18 1.30695 104.03349 3643 ft 263 kts 16°
2026-05-06 14:18 1.32555 104.03480 4188 ft 275 kts 353°
2026-05-06 14:18 1.34469 104.03186 4910 ft 280 kts 349°
2026-05-06 14:19 1.36402 104.02863 5599 ft 283 kts 351°
2026-05-06 14:19 1.38338 104.02590 6275 ft 286 kts 352°
2026-05-06 14:19 1.40328 104.02332 6956 ft 289 kts 351°
2026-05-06 14:19 1.42315 104.01933 7623 ft 292 kts 345°
2026-05-06 14:20 1.44274 104.01355 8396 ft 294 kts 342°
2026-05-06 14:20 1.46220 104.00727 9247 ft 295 kts 342°
2026-05-06 14:20 1.48156 104.00097 10164 ft 297 kts 342°
2026-05-06 14:20 1.50151 103.99448 10970 ft 305 kts 341°
2026-05-06 14:21 1.52211 103.98778 11238 ft 321 kts 342°
2026-05-06 14:21 1.54393 103.98069 11462 ft 339 kts 342°
2026-05-06 14:21 1.56692 103.97242 11646 ft 357 kts 334°
2026-05-06 14:21 1.58669 103.95652 11815 ft 375 kts 308°
2026-05-06 14:22 1.59884 103.93310 12286 ft 385 kts 290°
2026-05-06 14:22 1.60718 103.90767 12923 ft 386 kts 288°
2026-05-06 14:22 1.61533 103.88228 13473 ft 390 kts 289°
2026-05-06 14:22 1.62411 103.85667 14023 ft 394 kts 290°
2026-05-06 14:23 1.63357 103.83065 14606 ft 396 kts 291°
2026-05-06 14:23 1.64324 103.80506 15153 ft 399 kts 292°
2026-05-06 14:23 1.65329 103.77907 15673 ft 402 kts 292°
2026-05-06 14:23 1.66356 103.75279 16188 ft 405 kts 292°
2026-05-06 14:24 1.67382 103.72669 16663 ft 408 kts 292°
2026-05-06 14:24 1.68432 103.70007 17124 ft 412 kts 292°
2026-05-06 14:24 1.69479 103.67359 17552 ft 413 kts 292°
2026-05-06 14:24 1.70539 103.64679 17965 ft 417 kts 292°
2026-05-06 14:25 1.71595 103.62013 18361 ft 418 kts 292°
2026-05-06 14:25 1.72679 103.59273 18735 ft 423 kts 292°
2026-05-06 14:25 1.73767 103.56523 19139 ft 426 kts 292°
2026-05-06 14:25 1.74844 103.53798 19541 ft 429 kts 292°
2026-05-06 14:26 1.75948 103.51004 19948 ft 431 kts 292°
2026-05-06 14:26 1.77051 103.48215 20325 ft 434 kts 292°
2026-05-06 14:26 1.78154 103.45423 20702 ft 436 kts 292°
2026-05-06 14:26 1.79272 103.42590 21063 ft 440 kts 292°
2026-05-06 14:27 1.80407 103.39714 21448 ft 443 kts 292°
2026-05-06 14:27 1.81527 103.36876 21770 ft 445 kts 292°
2026-05-06 14:27 1.82667 103.33991 21851 ft 444 kts 292°
2026-05-06 14:27 1.83804 103.31114 21856 ft 444 kts 292°
2026-05-06 14:28 1.84996 103.28265 21856 ft 444 kts 295°
2026-05-06 14:28 1.86330 103.25464 21856 ft 444 kts 297°
2026-05-06 14:28 1.87675 103.22723 21856 ft 443 kts 297°
2026-05-06 14:28 1.89034 103.19965 21856 ft 443 kts 297°
2026-05-06 14:29 1.90406 103.17179 21856 ft 444 kts 297°
2026-05-06 14:29 1.91765 103.14416 21855 ft 443 kts 297°
2026-05-06 14:29 1.93113 103.11668 21856 ft 444 kts 297°
2026-05-06 14:29 1.94477 103.08888 21856 ft 444 kts 297°
2026-05-06 14:30 1.95828 103.06131 21855 ft 443 kts 297°
2026-05-06 14:30 1.97185 103.03362 21853 ft 443 kts 297°
2026-05-06 14:30 1.98546 103.00584 21856 ft 443 kts 297°
2026-05-06 14:30 1.99899 102.97822 21856 ft 442 kts 297°
2026-05-06 14:31 2.01243 102.95080 21857 ft 442 kts 297°
2026-05-06 14:31 2.02596 102.92319 21853 ft 443 kts 297°
2026-05-06 14:31 2.03952 102.89553 21848 ft 443 kts 297°
2026-05-06 14:31 2.05303 102.86794 21848 ft 443 kts 297°
2026-05-06 14:32 2.06644 102.84051 21846 ft 443 kts 297°
2026-05-06 14:32 2.08001 102.81268 21844 ft 443 kts 297°
2026-05-06 14:32 2.09347 102.78509 21841 ft 431 kts 297°
2026-05-06 14:32 2.10630 102.75874 21846 ft 413 kts 297°
2026-05-06 14:33 2.11859 102.73351 21850 ft 399 kts 297°
2026-05-06 14:33 2.13082 102.70846 21854 ft 398 kts 297°
2026-05-06 14:33 2.14294 102.68365 21855 ft 398 kts 297°
2026-05-06 14:33 2.15591 102.65937 21854 ft 396 kts 303°
2026-05-06 14:34 2.17142 102.63656 21672 ft 389 kts 309°
2026-05-06 14:34 2.18882 102.61617 21212 ft 387 kts 315°
2026-05-06 14:34 2.20780 102.59708 20726 ft 385 kts 317°
2026-05-06 14:34 2.22664 102.57862 20286 ft 382 kts 317°
2026-05-06 14:35 2.24568 102.55999 19840 ft 380 kts 317°
2026-05-06 14:35 2.26456 102.54144 19403 ft 377 kts 317°
2026-05-06 14:35 2.28321 102.52303 18970 ft 375 kts 317°
2026-05-06 14:35 2.30152 102.50491 18543 ft 372 kts 317°
2026-05-06 14:36 2.31987 102.48673 18115 ft 370 kts 317°
2026-05-06 14:36 2.33798 102.46874 17799 ft 363 kts 317°
2026-05-06 14:36 2.35570 102.45116 17634 ft 353 kts 317°
2026-05-06 14:36 2.37292 102.43404 17470 ft 343 kts 316°
2026-05-06 14:37 2.38661 102.41500 17255 ft 337 kts 292°
2026-05-06 14:37 2.39000 102.39233 17066 ft 329 kts 262°
2026-05-06 14:37 2.38350 102.37082 16899 ft 319 kts 247°
2026-05-06 14:37 2.37495 102.35052 16579 ft 317 kts 244°
2026-05-06 14:38 2.36252 102.33256 16194 ft 313 kts 218°
2026-05-06 14:38 2.34406 102.32225 15839 ft 305 kts 192°
2026-05-06 14:38 2.32337 102.31795 15495 ft 300 kts 187°
2026-05-06 14:38 2.30263 102.31426 15114 ft 300 kts 187°
2026-05-06 14:39 2.28219 102.31019 14779 ft 298 kts 192°
2026-05-06 14:39 2.26268 102.30331 14444 ft 299 kts 202°
2026-05-06 14:39 2.24448 102.29335 14072 ft 299 kts 209°
2026-05-06 14:39 2.22668 102.28230 13743 ft 297 kts 210°
2026-05-06 14:40 2.20932 102.27135 13415 ft 295 kts 210°
2026-05-06 14:40 2.19230 102.26012 13074 ft 294 kts 216°
2026-05-06 14:40 2.17698 102.24619 12714 ft 294 kts 227°
2026-05-06 14:40 2.16412 102.23068 12383 ft 292 kts 231°
2026-05-06 14:41 2.15336 102.21336 12018 ft 292 kts 251°
2026-05-06 14:41 2.15056 102.19353 11648 ft 291 kts 273°
2026-05-06 14:41 2.15273 102.17334 11030 ft 299 kts 278°
2026-05-06 14:41 2.15611 102.15278 10477 ft 305 kts 279°
2026-05-06 14:42 2.15988 102.13170 10083 ft 304 kts 279°
2026-05-06 14:42 2.16382 102.11111 9762 ft 300 kts 283°
2026-05-06 14:42 2.17237 102.09229 9328 ft 298 kts 312°
2026-05-06 14:42 2.18795 102.07897 9035 ft 292 kts 325°
2026-05-06 14:43 2.20465 102.06731 8782 ft 291 kts 325°
2026-05-06 14:43 2.22119 102.05568 8559 ft 287 kts 323°
2026-05-06 14:43 2.23703 102.04369 8351 ft 283 kts 323°
2026-05-06 14:43 2.25240 102.03172 8105 ft 281 kts 322°
2026-05-06 14:44 2.26762 102.01955 7810 ft 275 kts 323°
2026-05-06 14:44 2.28255 102.00761 7409 ft 275 kts 323°
2026-05-06 14:44 2.29755 101.99554 7021 ft 273 kts 323°
2026-05-06 14:45 2.32716 101.97203 6202 ft 272 kts 320°
2026-05-06 14:45 2.34187 101.95999 5745 ft 272 kts 320°
2026-05-06 14:45 2.35650 101.94785 5317 ft 273 kts 321°
2026-05-06 14:45 2.37125 101.93584 4912 ft 274 kts 321°
2026-05-06 14:46 2.38590 101.92386 4570 ft 274 kts 322°
2026-05-06 14:46 2.40095 101.91180 4251 ft 273 kts 321°
2026-05-06 14:46 2.41551 101.89997 3919 ft 272 kts 321°
2026-05-06 14:46 2.43020 101.88798 3666 ft 268 kts 321°
2026-05-06 14:47 2.44432 101.87635 3513 ft 260 kts 322°
2026-05-06 14:47 2.45846 101.86521 3357 ft 251 kts 324°
2026-05-06 14:47 2.47253 101.85549 3206 ft 243 kts 325°
2026-05-06 14:47 2.48649 101.84624 3023 ft 235 kts 324°
2026-05-06 14:48 2.49972 101.83727 2891 ft 226 kts 326°
2026-05-06 14:48 2.51252 101.82861 2754 ft 218 kts 326°
2026-05-06 14:48 2.52500 101.82038 2621 ft 211 kts 326°
2026-05-06 14:48 2.53718 101.81231 2509 ft 203 kts 325°
2026-05-06 14:49 2.54864 101.80451 2504 ft 199 kts 326°
2026-05-06 14:49 2.56021 101.79667 2585 ft 200 kts 326°
2026-05-06 14:49 2.57189 101.78893 2538 ft 199 kts 324°
2026-05-06 14:49 2.58334 101.78123 2520 ft 199 kts 324°
2026-05-06 14:50 2.59480 101.77341 2497 ft 199 kts 327°
2026-05-06 14:50 2.60636 101.76575 2386 ft 199 kts 326°
2026-05-06 14:50 2.61779 101.75804 2137 ft 195 kts 326°
2026-05-06 14:50 2.62892 101.75057 1870 ft 185 kts 326°
2026-05-06 14:51 2.63932 101.74358 1634 ft 175 kts 328°
2026-05-06 14:51 2.64907 101.73709 1438 ft 164 kts 328°
2026-05-06 14:51 2.65838 101.73090 1216 ft 156 kts 327°
2026-05-06 14:51 2.66714 101.72505 1020 ft 147 kts 326°
2026-05-06 14:52 2.67566 101.71920 841 ft 146 kts 328°
2026-05-06 14:52 2.68407 101.71362 645 ft 145 kts 328°
2026-05-06 14:52 2.69253 101.70805 483 ft 144 kts 328°
2026-05-06 14:52 2.70078 101.70251 298 ft 144 kts 327°
2026-05-06 14:53 2.70910 101.69701 109 ft 142 kts 327°
2026-05-06 14:53 2.71700 101.69173 75 ft 120 kts 326°
2026-05-06 14:53 2.72253 101.68800 74 ft 71 kts 325°
2026-05-06 14:53 2.72542 101.68643 74 ft 29 kts 347°
2026-05-06 14:54 2.72729 101.68617 74 ft 25 kts 352°
2026-05-06 14:54 2.72864 101.68592 74 ft 14 kts 336°
2026-05-06 14:54 2.72952 101.68535 74 ft 15 kts 326°
2026-05-06 14:54 2.73041 101.68477 74 ft 15 kts 327°
2026-05-06 14:55 2.73130 101.68416 74 ft 15 kts 325°
2026-05-06 14:55 2.73223 101.68355 74 ft 15 kts 326°
2026-05-06 14:55 2.73307 101.68299 74 ft 9 kts 334°
2026-05-06 14:55 2.73368 101.68311 74 ft 10 kts 47°
2026-05-06 14:56 2.73411 101.68373 75 ft 11 kts 56°
2026-05-06 14:56 2.73456 101.68439 75 ft 12 kts 55°
2026-05-06 14:56 2.73504 101.68509 75 ft 12 kts 56°
2026-05-06 14:56 2.73555 101.68584 75 ft 13 kts 56°
2026-05-06 14:57 2.73609 101.68663 75 ft 13 kts 56°
2026-05-06 14:57 2.73664 101.68745 75 ft 14 kts 56°
2026-05-06 14:57 2.73722 101.68830 75 ft 14 kts 56°
2026-05-06 14:57 2.73780 101.68916 75 ft 14 kts 56°
2026-05-06 14:58 2.73835 101.68999 75 ft 14 kts 56°
2026-05-06 14:58 2.73888 101.69076 75 ft 12 kts 56°
2026-05-06 14:58 2.73933 101.69141 75 ft 7 kts 49°
2026-05-06 14:58 2.73976 101.69138 75 ft 7 kts 324°
2026-05-06 14:59 2.74015 101.69111 75 ft 7 kts 326°
2026-05-06 14:59 2.74029 101.69101 75 ft 0 kts 324°
2026-05-06 14:59 2.74030 101.69101 75 ft 0 kts 324°